1519142400.3,11885,11.0,72578.8,-12.87,-17.97,-18.25,0,*6F
1519142401.51,11886,11.0,72576.0,-12.85,-18.07,-18.25,0,*68
1519142402.78,11887,11.0,72574.5,-12.85,-17.97,-18.35,0,*6E
1519142404.02,11888,11.0,72572.5,-12.85,-17.93,-18.25,0,*64
1519142405.23,11889,11.0,72580.3,-12.85,-17.83,-18.21,0,*60
1519142406.54,11890,11.0,72580.3,-12.87,-17.97,-18.31,0,*6E
1519142407.75,11891,11.0,72580.5,-12.85,-17.83,-18.25,0,*6D
1519142409.01,11892,11.0,72582.3,-12.87,-17.97,-18.25,0,*69
1519142410.26,11893,11.0,72576.5,-12.85,-17.83,-18.31,0,*6A
1519142411.49,11894,11.0,72572.5,-12.85,-17.93,-18.25,0,*69
1519142412.73,11895,11.0,72576.5,-12.85,-17.97,-18.25,0,*6C
1519142413.95,11896,11.0,72574.3,-12.85,-17.83,-18.21,0,*6E
1519142415.18,11897,11.0,72576.5,-12.87,-17.87,-18.25,0,*6D
1519142416.4,11898,11.0,72576.5,-12.85,-17.83,-18.21,0,*60
1519142417.62,11899,11.0,72576.8,-12.85,-17.83,-18.21,0,*61
1519142418.83,11900,11.0,72568.8,-12.85,-17.83,-18.21,0,*60
1519142420.08,11901,11.0,72576.3,-12.87,-17.83,-18.11,0,*60
1519142421.32,11902,11.0,72572.3,-12.87,-17.83,-18.17,0,*65
1519142422.56,11903,11.0,72578.3,-12.87,-17.73,-18.17,0,*6B
1519142423.78,11904,11.0,72588.3,-12.85,-17.69,-18.11,0,*63
1519142424.99,11905,11.0,72572.5,-12.85,-17.73,-18.17,0,*6F
1519142426.22,11906,11.0,72580.3,-12.87,-17.73,-18.17,0,*6E
1519142427.43,11907,11.0,72576.3,-12.85,-17.73,-18.25,0,*6C
1519142428.67,11908,11.0,72574.8,-12.87,-17.87,-18.25,0,*6A
1519142429.9,11909,11.0,72574.5,-12.87,-17.87,-18.25,0,*6B
1519142431.14,11910,11.0,72574.8,-12.87,-17.87,-18.25,0,*63
1519142432.44,11911,11.0,72580.0,-12.87,-17.97,-18.31,0,*66
1519142433.71,11912,11.0,72578.0,-12.87,-17.97,-18.17,0,*61
1519142434.95,11913,11.0,72578.0,-12.89,-17.97,-18.25,0,*6F
1519142436.19,11914,11.0,72576.3,-12.87,-17.87,-18.25,0,*67
1519142437.46,11915,11.0,72582.5,-12.87,-17.83,-18.31,0,*67
1519142438.73,11916,11.0,72576.5,-12.87,-17.97,-18.17,0,*65
1519142439.99,11917,11.0,72572.0,-12.87,-17.97,-18.25,0,*65
1519142441.29,11918,11.0,72582.8,-12.87,-17.97,-18.31,0,*6F
1519142442.56,11919,11.0,72580.3,-12.87,-17.97,-18.25,0,*6B
1519142443.82,11920,11.0,72576.3,-12.87,-17.97,-18.25,0,*61
1519142445.07,11921,11.0,72582.3,-12.89,-18.11,-18.31,0,*6A
1519142446.3,11922,11.0,72578.0,-12.89,-18.01,-18.41,0,*6F
1519142447.58,11923,11.0,72580.8,-12.89,-18.01,-18.31,0,*69
1519142448.79,11924,11.0,72576.5,-12.89,-18.11,-18.45,0,*6C
1519142450.0,11925,11.0,72578.0,-12.89,-18.11,-18.25,0,*6B
1519142451.23,11926,10.94,72570.5,-12.89,-18.01,-18.41,0,*6B
1519142452.45,11927,11.0,72580.3,-12.89,-18.11,-18.45,0,*6F
1519142453.66,11928,11.0,72580.3,-12.89,-18.11,-18.45,0,*60
1519142454.9,11929,11.0,72574.8,-12.87,-18.11,-18.45,0,*6F
1519142456.14,11930,11.0,72582.8,-12.87,-18.11,-18.49,0,*6B
1519142457.35,11931,11.0,72578.3,-12.89,-18.11,-18.49,0,*64
1519142458.56,11932,11.0,72582.0,-12.89,-18.11,-18.49,0,*67
1519142459.79,11933,11.0,72580.5,-12.89,-18.11,-18.59,0,*67
1519142461.02,11934,11.0,72574.8,-12.89,-18.11,-18.59,0,*60
1519142462.25,11935,11.0,72578.8,-12.89,-18.17,-18.59,0,*67
1519142463.47,11936,11.0,72576.0,-12.89,-18.17,-18.65,0,*6B
1519142464.71,11937,11.0,72576.8,-12.91,-18.21,-18.65,0,*66
1519142465.94,11938,11.0,72578.0,-12.89,-18.17,-18.59,0,*6A
1519142467.18,11939,11.0,72576.3,-12.91,-18.21,-18.69,0,*64
1519142468.4,11940,11.0,72572.5,-12.89,-18.17,-18.73,0,*6D
1519142469.61,11941,11.0,72576.3,-12.89,-18.17,-18.65,0,*6B
1519142470.86,11942,11.0,72582.3,-12.91,-18.21,-18.69,0,*68
1519142472.07,11943,11.0,72582.5,-12.89,-18.17,-18.65,0,*69
1519142473.31,11944,11.0,72580.0,-12.91,-18.17,-18.79,0,*6A
1519142474.55,11945,11.0,72580.5,-12.91,-18.21,-18.73,0,*64
1519142475.76,11946,11.0,72574.8,-12.89,-18.17,-18.65,0,*6C
1519142477.01,11947,11.0,72578.3,-12.91,-18.21,-18.69,0,*6D
1519142478.22,11948,11.0,72576.3,-12.89,-18.17,-18.65,0,*62
1519142479.46,11949,11.0,72576.0,-12.91,-18.07,-18.69,0,*67
1519142480.71,11950,11.0,72580.8,-12.91,-18.07,-18.65,0,*63
1519142481.95,11951,11.0,72572.3,-12.91,-18.07,-18.69,0,*6E
1519142483.17,11952,11.0,72574.5,-12.89,-18.11,-18.73,0,*68
1519142484.4,11953,11.0,72580.3,-12.91,-18.07,-18.83,0,*68
1519142485.62,11954,11.0,72578.3,-12.89,-18.11,-18.65,0,*69
1519142486.86,11955,11.0,72582.0,-12.91,-18.17,-18.69,0,*6B
1519142488.1,11956,11.0,72578.8,-12.91,-18.07,-18.65,0,*65
1519142489.39,11957,11.0,72578.3,-12.91,-18.01,-18.55,0,*61
1519142490.68,11958,11.0,72574.5,-12.91,-18.01,-18.55,0,*6E
1519142491.92,11959,11.0,72574.0,-12.89,-18.07,-18.55,0,*60
1519142493.16,11960,11.0,72586.0,-12.91,-18.17,-18.65,0,*61
1519142494.45,11961,11.0,72580.0,-12.91,-18.01,-18.55,0,*64
1519142495.72,11962,11.0,72576.3,-12.91,-18.07,-18.55,0,*61
1519142496.98,11963,11.0,72570.8,-12.91,-18.07,-18.55,0,*60
1519142498.2,11964,11.0,72574.3,-12.89,-17.87,-18.49,0,*64
1519142499.49,11965,11.0,72576.8,-12.91,-18.01,-18.55,0,*60
1519142500.75,11966,11.0,72578.8,-12.91,-18.01,-18.49,0,*6E
1519142502.04,11967,11.0,72572.5,-12.91,-18.01,-18.55,0,*62
1519142503.26,11968,11.0,72576.8,-12.89,-18.11,-18.49,0,*68
1519142504.55,11969,11.0,72578.5,-12.91,-17.93,-18.55,0,*68
1519142505.84,11970,11.0,72576.5,-12.91,-18.01,-18.55,0,*64
1519142507.13,11971,11.0,72578.5,-12.91,-18.01,-18.55,0,*65
1519142508.37,11972,11.0,72582.5,-12.89,-18.01,-18.49,0,*62
1519142509.63,11973,11.0,72584.0,-12.91,-18.01,-18.49,0,*6A
1519142510.9,11974,11.0,72582.0,-12.91,-17.93,-18.45,0,*65
1519142512.16,11975,11.0,72572.8,-12.91,-17.93,-18.49,0,*68
1519142513.43,11976,11.0,72576.8,-12.91,-17.93,-18.49,0,*6B
1519142514.7,11977,11.0,72576.5,-12.91,-18.01,-18.49,0,*6E
1519142515.94,11978,11.0,72580.0,-12.89,-17.97,-18.41,0,*60
1519142517.2,11979,11.0,72582.0,-12.91,-17.93,-18.45,0,*68
1519142518.5,11980,11.0,72578.3,-12.91,-18.01,-18.35,0,*6D
1519142519.79,11981,11.0,72574.0,-12.91,-18.01,-18.35,0,*6C
1519142521.09,11982,11.0,72574.8,-12.91,-18.01,-18.35,0,*6F
1519142522.36,11983,11.0,72576.5,-12.91,-18.01,-18.45,0,*69
1519142523.62,11984,11.0,72578.8,-12.91,-17.93,-18.49,0,*66
1519142524.86,11985,11.0,72582.5,-12.89,-17.93,-18.45,0,*62
1519142526.13,11986,11.0,72580.0,-12.91,-18.01,-18.49,0,*60
1519142527.39,11987,11.0,72578.3,-12.91,-18.01,-18.49,0,*61
1519142528.66,11988,11.0,72574.0,-12.91,-17.93,-18.45,0,*66
1519142529.93,11989,11.0,72572.5,-12.91,-18.01,-18.45,0,*63
1519142531.2,11990,11.0,72574.5,-12.91,-18.01,-18.45,0,*6B
1519142532.44,11991,11.0,72574.0,-12.89,-17.97,-18.41,0,*67
1519142533.73,11992,11.0,72578.3,-12.91,-18.01,-18.35,0,*6E
1519142535.0,11993,11.0,72574.0,-12.91,-18.01,-18.45,0,*68
1519142536.21,11994,11.0,72578.0,-12.89,-17.87,-18.41,0,*63
1519142537.5,11995,11.0,72578.5,-12.91,-17.93,-18.35,0,*6D
1519142538.8,11996,11.0,72574.8,-12.91,-18.01,-18.35,0,*6A
1519142540.09,11997,11.0,72578.5,-12.91,-18.01,-18.35,0,*6B
1519142541.36,11998,11.0,72584.8,-12.91,-17.93,-18.45,0,*67
1519142542.58,11999,11.0,72582.5,-12.89,-17.87,-18.45,0,*6A
1519142543.84,12000,11.0,72582.8,-12.91,-18.01,-18.49,0,*64
1519142545.11,12001,11.0,72574.5,-12.91,-17.93,-18.45,0,*6D
1519142546.38,12002,11.0,72574.0,-12.91,-17.93,-18.45,0,*6E
1519142547.64,12003,11.0,72574.8,-12.91,-17.93,-18.49,0,*63
1519142548.91,12004,11.0,72580.0,-12.91,-17.93,-18.45,0,*68
1519142550.17,12005,11.0,72578.8,-12.91,-17.73,-18.35,0,*60
1519142551.47,12006,11.0,72574.3,-12.91,-17.79,-18.31,0,*6D
1519142552.74,12007,11.0,72576.8,-12.95,-17.83,-18.35,0,*69
1519142554.04,12008,11.0,72576.3,-12.91,-17.79,-18.31,0,*63
1519142555.31,12009,11.0,72572.8,-12.91,-17.73,-18.31,0,*68
1519142556.6,12010,11.0,72574.3,-12.91,-17.79,-18.31,0,*6A
1519142557.81,12011,11.0,72576.5,-12.89,-17.69,-18.17,0,*67
1519142559.05,12012,11.0,72572.0,-12.91,-17.73,-18.21,0,*63
1519142560.29,12013,11.0,72574.3,-12.91,-17.73,-18.21,0,*62
1519142561.53,12014,11.0,72574.5,-12.91,-17.73,-18.21,0,*65
1519142562.82,12015,11.0,72564.3,-12.91,-17.79,-18.31,0,*6F
1519142564.12,12016,11.0,72564.0,-12.91,-17.79,-18.31,0,*6C
1519142565.33,12017,11.0,72562.3,-12.89,-17.73,-18.17,0,*6A
1519142566.58,12018,11.0,72568.0,-12.91,-17.63,-18.17,0,*6D
1519142567.85,12019,11.0,72574.8,-12.91,-17.59,-18.21,0,*60
1519142569.11,12020,11.0,72568.0,-12.91,-17.63,-18.17,0,*66
1519142570.35,12021,11.0,72568.0,-12.91,-17.73,-18.21,0,*63
1519142571.61,12022,11.0,72578.3,-12.91,-17.63,-18.17,0,*64
1519142572.9,12023,11.0,72572.3,-12.91,-17.55,-18.01,0,*67
1519142574.16,12024,11.0,72572.8,-12.91,-17.55,-18.17,0,*67
1519142575.42,12025,11.0,72578.8,-12.91,-17.63,-18.17,0,*63
1519142576.68,12026,11.0,72576.0,-12.91,-17.59,-18.17,0,*69
1519142577.94,12027,11.0,72578.3,-12.91,-17.59,-18.17,0,*68
1519142579.24,12028,11.0,72580.0,-12.91,-17.63,-18.31,0,*6A
1519142580.53,12029,11.0,72582.3,-12.91,-17.79,-18.31,0,*60
1519142581.8,12030,11.0,72584.3,-12.91,-17.73,-18.31,0,*62
1519142583.06,12031,11.0,72590.0,-12.91,-17.55,-18.17,0,*63
1519142584.33,12032,11.0,72578.5,-12.91,-17.59,-18.07,0,*6D
1519142585.62,12033,11.0,72574.3,-12.91,-17.59,-18.01,0,*6A
1519142586.89,12034,11.0,72578.3,-12.91,-17.63,-18.07,0,*62
1519142588.16,12035,11.0,72576.0,-12.91,-17.55,-18.07,0,*66
1519142589.45,12036,10.94,72574.3,-12.91,-17.45,-18.01,0,*62
1519142590.75,12037,11.0,72582.8,-12.91,-17.45,-17.93,0,*67
1519142592.02,12038,11.0,72578.3,-12.91,-17.45,-18.07,0,*6A
1519142593.3,12039,11.0,72574.3,-12.91,-17.45,-18.07,0,*6B
1519142594.59,12040,11.0,72574.5,-12.91,-17.45,-18.01,0,*63
1519142595.88,12041,11.0,72572.3,-12.95,-17.45,-17.87,0,*67
1519142597.15,12042,11.0,72572.0,-12.91,-17.41,-17.87,0,*64
1519142598.43,12043,11.0,72576.5,-12.91,-17.41,-17.87,0,*65
1519142599.73,12044,11.0,72576.5,-12.91,-17.45,-17.79,0,*67
1519142600.99,12045,11.0,72578.8,-12.91,-17.31,-17.79,0,*65
1519142602.26,12046,11.0,72574.3,-12.91,-17.25,-17.73,0,*69
1519142603.52,12047,11.0,72574.0,-12.91,-17.31,-17.79,0,*67
1519142604.78,12048,11.0,72574.5,-12.91,-17.31,-17.79,0,*68
1519142606.02,12049,11.0,72576.3,-12.91,-17.31,-17.73,0,*63
1519142607.29,12050,11.0,72582.0,-12.91,-17.25,-17.69,0,*65
1519142608.52,12051,11.0,72572.0,-12.91,-17.31,-17.73,0,*6A
1519142609.79,12052,11.0,72568.3,-12.91,-17.41,-17.73,0,*6E
1519142611.1,12053,11.0,72572.3,-12.95,-17.45,-17.79,0,*65
1519142612.37,12054,11.0,72572.0,-12.91,-17.41,-17.73,0,*68
1519142613.63,12055,11.0,72574.8,-12.91,-17.31,-17.55,0,*6A
1519142614.89,12056,11.0,72572.5,-12.91,-17.31,-17.55,0,*69
1519142616.16,12057,11.0,72568.5,-12.91,-17.31,-17.59,0,*64
1519142617.42,12058,11.0,72564.8,-12.91,-17.31,-17.55,0,*67
1519142618.72,12059,11.0,72574.0,-12.95,-17.45,-17.63,0,*64
1519142620.03,12060,11.0,72574.3,-12.95,-17.45,-17.59,0,*67
1519142621.28,12061,11.0,72574.8,-12.95,-17.49,-17.69,0,*69
1519142622.58,12062,11.0,72572.0,-12.95,-17.45,-17.63,0,*6C
1519142623.88,12063,11.0,72576.0,-12.91,-17.41,-17.63,0,*6D
1519142625.17,12064,11.0,72570.0,-12.91,-17.41,-17.63,0,*6A
1519142626.47,12065,11.0,72576.8,-12.91,-17.41,-17.63,0,*6B
1519142627.77,12066,11.0,72572.8,-12.91,-17.41,-17.59,0,*61
1519142629.07,12067,11.0,72574.0,-12.91,-17.41,-17.59,0,*60
1519142630.32,12068,11.0,72570.3,-12.95,-17.49,-17.69,0,*60
1519142631.62,12069,11.0,72568.5,-12.91,-17.41,-17.63,0,*67
1519142632.92,12070,11.0,72574.5,-12.95,-17.45,-17.63,0,*6F
1519142634.2,12071,11.0,72568.5,-12.95,-17.45,-17.69,0,*64
1519142635.49,12072,11.0,72576.8,-12.91,-17.45,-17.63,0,*69
1519142636.77,12073,11.0,72574.8,-12.91,-17.45,-17.73,0,*69
1519142638.06,12074,11.0,72570.0,-12.95,-17.59,-17.79,0,*6D
1519142639.33,12075,11.0,72570.5,-12.91,-17.45,-17.73,0,*6F
1519142640.61,12076,11.0,72574.0,-12.95,-17.49,-17.63,0,*65
1519142641.91,12077,11.0,72578.8,-12.91,-17.41,-17.59,0,*61
1519142643.2,12078,11.0,72578.5,-12.91,-17.45,-17.63,0,*63
1519142644.49,12079,11.0,72570.8,-12.91,-17.59,-17.79,0,*64
1519142645.76,12080,11.0,72574.0,-12.91,-17.55,-17.73,0,*64
1519142647.01,12081,11.0,72578.0,-12.95,-17.49,-17.69,0,*67
1519142648.3,12082,11.0,72574.3,-12.95,-17.59,-17.63,0,*6F
1519142649.6,12083,11.0,72570.8,-12.91,-17.59,-17.59,0,*63
1519142650.89,12084,11.0,72576.3,-12.91,-17.59,-17.63,0,*6D
1519142652.16,12085,11.0,72568.8,-12.95,-17.63,-17.69,0,*6B
1519142653.43,12086,11.0,72574.5,-12.95,-17.59,-17.69,0,*61
1519142654.7,12087,11.0,72568.0,-12.95,-17.59,-17.69,0,*60
1519142655.99,12088,11.0,72568.3,-12.91,-17.55,-17.79,0,*66
1519142657.28,12089,11.0,72568.8,-12.91,-17.55,-17.63,0,*6C
1519142658.58,12090,11.0,72576.5,-12.95,-17.63,-17.79,0,*6E
1519142659.87,12091,11.0,72574.3,-12.95,-17.63,-17.79,0,*6F
1519142661.17,12092,11.0,72570.3,-12.95,-17.63,-17.79,0,*6C
1519142662.46,12093,11.0,72570.3,-12.95,-17.63,-17.79,0,*6D
1519142663.74,12094,11.0,72572.5,-12.95,-17.49,-17.79,0,*62
1519142665.03,12095,11.0,72572.3,-12.95,-17.59,-17.79,0,*62
1519142666.32,12096,11.0,72570.3,-12.91,-17.59,-17.63,0,*6E
1519142667.62,12097,11.0,72568.3,-12.95,-17.63,-17.79,0,*69
1519142668.91,12098,11.0,72570.5,-12.95,-17.63,-17.79,0,*66
1519142670.2,12099,11.0,72574.8,-12.91,-17.59,-17.79,0,*6A
1519142671.5,12100,11.0,72574.3,-12.95,-17.59,-17.79,0,*6F
1519142672.78,12101,11.0,72570.3,-12.95,-17.59,-17.83,0,*6B
1519142674.05,12102,11.0,72568.5,-12.95,-17.63,-17.83,0,*61
1519142675.34,12103,11.0,72566.3,-12.95,-17.63,-17.93,0,*61
1519142676.62,12104,11.0,72566.8,-12.95,-17.63,-17.83,0,*67
1519142677.88,12105,11.0,72570.0,-12.91,-17.55,-17.73,0,*68
1519142679.14,12106,11.0,72570.0,-12.91,-17.55,-17.73,0,*6B
1519142680.44,12107,11.0,72574.8,-12.91,-17.45,-17.63,0,*6A
1519142681.74,12108,11.0,72572.5,-12.95,-17.45,-17.79,0,*6A
1519142683.04,12109,11.0,72568.0,-12.91,-17.41,-17.79,0,*6B
1519142684.31,12110,10.94,72566.5,-12.91,-17.45,-17.73,0,*6D
1519142685.59,12111,11.0,72564.8,-12.95,-17.49,-17.79,0,*6E
1519142686.89,12112,11.0,72574.3,-12.95,-17.45,-17.63,0,*6A
1519142688.17,12113,11.0,72572.3,-12.95,-17.45,-17.69,0,*61
1519142689.47,12114,11.0,72572.3,-12.91,-17.41,-17.59,0,*65
1519142690.77,12115,11.0,72572.3,-12.95,-17.45,-17.63,0,*6D
1519142692.06,12116,11.0,72572.0,-12.91,-17.45,-17.63,0,*6A
1519142693.34,12117,11.0,72570.0,-12.95,-17.45,-17.69,0,*65
1519142694.62,12118,11.0,72574.5,-12.95,-17.45,-17.49,0,*68
1519142695.93,12119,11.0,72568.3,-12.95,-17.45,-17.59,0,*68
1519142697.2,12120,11.0,72570.0,-12.95,-17.49,-17.59,0,*6E
1519142698.5,12121,11.0,72570.3,-12.95,-17.45,-17.63,0,*6A
1519142699.8,12122,10.94,72566.0,-12.91,-17.45,-17.55,0,*68
1519142701.09,12123,11.0,72568.0,-12.91,-17.55,-17.59,0,*64
1519142702.39,12124,10.94,72566.8,-12.95,-17.59,-17.55,0,*67
1519142703.69,12125,11.0,72564.8,-12.91,-17.45,-17.45,0,*6E
1519142704.94,12126,11.0,72568.8,-12.95,-17.49,-17.49,0,*69
1519142706.24,12127,11.0,72574.8,-12.95,-17.59,-17.59,0,*68
1519142707.54,12128,11.0,72570.5,-12.95,-17.59,-17.59,0,*67
1519142708.83,12129,11.0,72570.5,-12.95,-17.63,-17.63,0,*66
1519142710.13,12130,11.0,72576.0,-12.95,-17.63,-17.63,0,*6E
1519142711.4,12131,11.0,72572.8,-12.95,-17.63,-17.69,0,*65
1519142712.69,12132,11.0,72572.0,-12.91,-17.59,-17.63,0,*61
1519142713.96,12133,11.0,72572.8,-12.95,-17.69,-17.79,0,*6C
1519142715.21,12134,11.0,72568.3,-12.95,-17.69,-17.69,0,*6A
1519142716.47,12135,11.0,72574.3,-12.91,-17.73,-17.63,0,*6E
1519142717.76,12136,11.0,72574.3,-12.91,-17.59,-17.63,0,*65
1519142719.01,12137,11.0,72574.8,-12.95,-17.69,-17.69,0,*69
1519142720.3,12138,11.0,72570.3,-12.91,-17.63,-17.63,0,*62
1519142721.57,12139,11.0,72570.8,-12.95,-17.79,-17.83,0,*62
1519142722.84,12140,11.0,72566.3,-12.95,-17.69,-17.63,0,*63
1519142724.09,12141,11.0,72570.0,-12.95,-17.69,-17.69,0,*68
1519142725.36,12142,11.0,72568.0,-12.95,-17.69,-17.79,0,*6A
1519142726.66,12143,11.0,72568.0,-12.95,-17.79,-17.79,0,*6A
1519142727.92,12144,11.0,72570.5,-12.91,-17.73,-17.79,0,*63
1519142729.18,12145,11.0,72572.3,-12.91,-17.63,-17.73,0,*69
1519142730.46,12146,10.94,72574.0,-12.95,-17.79,-17.83,0,*6A
1519142731.73,12147,11.0,72574.3,-12.95,-17.83,-17.93,0,*6F
1519142732.98,12148,11.0,72576.5,-12.95,-17.83,-17.83,0,*61
1519142734.26,12149,11.0,72574.8,-12.95,-17.93,-17.83,0,*61
1519142735.57,12150,11.0,72572.5,-12.95,-17.93,-17.97,0,*6C
1519142736.84,12151,11.0,72572.5,-12.95,-17.83,-17.93,0,*68
1519142738.13,12152,11.0,72570.8,-12.91,-17.93,-18.01,0,*6A
1519142739.4,12153,11.0,72566.0,-12.91,-17.79,-17.87,0,*6E
1519142740.68,12154,10.94,72566.3,-12.95,-17.83,-17.97,0,*69
1519142741.96,12155,11.0,72570.5,-12.91,-17.79,-17.93,0,*6D
1519142743.23,12156,11.0,72570.5,-12.95,-17.83,-17.93,0,*6F
1519142744.51,12157,11.0,72570.3,-12.95,-17.93,-18.11,0,*6A
1519142745.79,12158,11.0,72568.3,-12.95,-17.83,-17.97,0,*65
1519142747.1,12159,10.94,72556.3,-12.95,-17.93,-17.97,0,*65
1519142748.4,12160,11.0,72570.8,-12.95,-17.93,-17.97,0,*6F
1519142749.69,12161,11.0,72564.3,-12.95,-17.93,-17.93,0,*6A
1519142751.0,12162,11.0,72568.8,-12.95,-17.93,-17.97,0,*6D
1519142752.24,12163,10.94,72572.8,-12.97,-17.83,-17.97,0,*6F
1519142753.49,12164,10.94,72568.5,-12.97,-17.93,-18.07,0,*6F
1519142754.76,12165,11.0,72572.5,-12.97,-17.93,-17.97,0,*68
1519142756.04,12166,11.0,72572.0,-12.95,-17.93,-18.07,0,*6F
1519142757.29,12167,11.0,72576.3,-12.95,-17.83,-18.07,0,*6F
1519142758.57,12168,11.0,72576.5,-12.95,-17.93,-18.07,0,*61
1519142759.84,12169,11.0,72576.5,-12.95,-17.93,-18.07,0,*60
1519142761.12,12170,11.0,72574.0,-12.95,-17.93,-18.07,0,*68
1519142762.4,12171,11.0,72570.8,-12.95,-17.93,-18.11,0,*6E
1519142763.68,12172,10.94,72574.8,-12.95,-17.97,-18.11,0,*69
1519142764.93,12173,11.0,72574.0,-12.95,-18.07,-18.11,0,*6E
1519142766.21,12174,11.0,72574.3,-12.95,-17.97,-18.21,0,*6C
1519142767.46,12175,11.0,72574.5,-12.95,-18.07,-18.21,0,*6B
1519142768.71,12176,11.0,72576.5,-12.95,-18.07,-18.21,0,*68
1519142769.99,12177,11.0,72572.8,-12.95,-17.97,-18.11,0,*6C
1519142771.27,12178,11.0,72580.5,-12.95,-17.93,-18.21,0,*64
1519142772.49,12179,10.94,72572.8,-12.97,-18.07,-18.21,0,*65
1519142773.73,12180,10.94,72574.3,-12.97,-17.97,-18.21,0,*65
1519142774.98,12181,11.0,72572.3,-12.97,-17.97,-18.21,0,*64
1519142776.2,12182,11.0,72576.5,-12.97,-18.07,-18.21,0,*61
1519142777.44,12183,11.0,72572.3,-12.97,-17.97,-18.21,0,*66
1519142778.69,12184,11.0,72574.3,-12.97,-17.93,-18.07,0,*61
1519142779.97,12185,10.94,72570.8,-12.99,-17.97,-18.11,0,*6D
1519142781.21,12186,11.0,72572.0,-12.97,-17.93,-18.11,0,*64
1519142782.44,12187,10.94,72572.3,-12.97,-17.83,-18.11,0,*64
1519142783.68,12188,11.0,72574.3,-12.97,-17.93,-18.21,0,*69
1519142784.93,12189,11.0,72574.0,-12.97,-17.97,-18.11,0,*6F
1519142786.17,12190,11.0,72576.3,-12.97,-17.79,-18.21,0,*64
1519142787.39,12191,11.0,72574.5,-12.97,-17.83,-18.25,0,*64
1519142788.63,12192,11.0,72576.3,-12.97,-17.93,-18.21,0,*62
1519142789.85,12193,10.94,72574.8,-12.97,-17.83,-18.21,0,*62
1519142791.07,12194,11.0,72576.3,-12.97,-17.83,-18.11,0,*66
1519142792.29,12195,10.94,72572.5,-12.97,-17.83,-18.25,0,*60
1519142793.5,12196,11.0,72578.5,-12.97,-17.83,-18.21,0,*67
1519142794.72,12197,11.0,72578.8,-12.97,-17.69,-18.21,0,*62
1519142795.97,12198,10.94,72578.5,-12.95,-17.69,-18.11,0,*6C
1519142797.22,12199,11.0,72584.0,-12.97,-17.79,-18.11,0,*6E
1519142798.45,12200,11.0,72582.5,-12.97,-17.79,-18.21,0,*6E
1519142799.7,12201,11.0,72576.8,-12.99,-17.83,-18.11,0,*67
1519142800.95,12202,11.0,72580.3,-12.97,-17.79,-18.11,0,*6F
1519142802.17,12203,11.0,72576.0,-12.97,-17.69,-18.07,0,*68
1519142803.44,12204,11.0,72576.5,-12.97,-17.63,-17.97,0,*63
1519142804.7,12205,11.0,72572.5,-12.97,-17.63,-17.97,0,*62
1519142805.95,12206,11.0,72574.0,-12.99,-17.69,-18.11,0,*64
1519142807.19,12207,11.0,72570.8,-12.97,-17.69,-18.01,0,*6A
1519142808.44,12208,11.0,72574.3,-12.97,-17.59,-18.11,0,*67
1519142809.71,12209,11.0,72572.5,-12.99,-17.63,-18.11,0,*61
1519142810.98,12210,10.94,72574.0,-12.97,-17.63,-17.97,0,*66
1519142812.2,12211,11.0,72582.3,-12.97,-17.69,-18.11,0,*6C
1519142813.49,12212,11.0,72576.0,-12.99,-17.63,-17.97,0,*6A
1519142814.74,12213,11.0,72582.8,-12.99,-17.69,-18.11,0,*60
1519142816.01,12214,11.0,72580.0,-12.97,-17.59,-17.97,0,*6B
1519142817.25,12215,11.0,72574.5,-12.99,-17.69,-18.11,0,*66
1519142818.49,12216,11.0,72572.0,-12.99,-17.69,-18.17,0,*63
1519142819.76,12217,10.94,72572.0,-12.99,-17.63,-18.11,0,*6E
1519142821.02,12218,11.0,72574.8,-12.99,-17.55,-18.17,0,*62
1519142822.29,12219,11.0,72576.8,-12.99,-17.63,-18.11,0,*60
1519142823.56,12220,10.94,72568.3,-12.99,-17.55,-18.11,0,*6F
1519142824.83,12221,11.0,72572.5,-12.99,-17.49,-17.97,0,*62
1519142826.12,12222,11.0,72576.0,-12.99,-17.55,-18.01,0,*6C
1519142827.42,12223,11.0,72580.8,-12.99,-17.55,-17.97,0,*6D
1519142828.72,12224,10.94,72572.3,-12.99,-17.55,-17.97,0,*6A
1519142829.99,12225,11.0,72572.5,-12.99,-17.49,-18.01,0,*66
1519142831.25,12226,10.94,72566.5,-12.99,-17.55,-18.17,0,*6F
1519142832.54,12227,10.94,72570.3,-12.99,-17.55,-17.97,0,*69
1519142833.79,12228,11.0,72576.8,-12.99,-17.49,-18.11,0,*6A
1519142835.06,12229,10.94,72576.8,-12.99,-17.49,-18.01,0,*6A
1519142836.36,12230,11.0,72574.5,-12.99,-17.55,-17.97,0,*6F
1519142837.63,12231,11.0,72576.5,-12.99,-17.49,-17.97,0,*63
1519142838.9,12232,11.0,72576.5,-12.99,-17.49,-17.97,0,*60
1519142840.18,12233,11.0,72576.5,-12.99,-17.49,-17.97,0,*61
1519142841.47,12234,10.94,72574.0,-12.99,-17.55,-17.97,0,*6B
1519142842.77,12235,10.94,72574.8,-12.99,-17.55,-17.97,0,*6A
1519142844.06,12236,11.0,72576.3,-12.99,-17.55,-18.01,0,*69
1519142845.36,12237,10.94,72576.5,-12.99,-17.55,-17.97,0,*68
1519142846.65,12238,11.0,72582.5,-12.99,-17.55,-17.97,0,*67
1519142847.92,12239,10.94,72566.8,-12.99,-17.55,-18.11,0,*67
1519142849.21,12240,11.0,72564.5,-12.99,-17.63,-17.97,0,*6D
1519142850.46,12241,11.0,72570.8,-12.99,-17.49,-18.11,0,*65
1519142851.73,12242,10.94,72564.8,-12.99,-17.49,-18.01,0,*67
1519142853.03,12243,10.94,72578.0,-12.99,-17.55,-17.97,0,*6B
1519142854.3,12244,10.94,72576.3,-12.99,-17.55,-18.11,0,*6D
1519142855.57,12245,10.94,72578.8,-12.99,-17.49,-17.97,0,*60
1519142856.84,12246,10.94,72578.0,-13.01,-17.49,-18.01,0,*63
1519142858.11,12247,11.0,72578.3,-12.99,-17.49,-17.97,0,*62
1519142859.39,12248,10.94,72576.3,-12.99,-17.41,-17.83,0,*60
1519142860.64,12249,11.0,72580.8,-12.99,-17.35,-17.87,0,*66
1519142861.92,12250,11.0,72576.0,-12.99,-17.41,-17.87,0,*6D
1519142863.19,12251,11.0,72582.8,-13.01,-17.49,-17.97,0,*65
1519142864.44,12252,11.0,72576.3,-13.03,-17.49,-17.97,0,*64
1519142865.7,12253,11.0,72580.0,-13.01,-17.49,-18.01,0,*67
1519142866.95,12254,11.0,72576.3,-13.01,-17.49,-17.87,0,*61
1519142868.2,12255,11.0,72576.5,-13.01,-17.49,-17.83,0,*64
1519142869.5,12256,11.0,72576.5,-13.01,-17.41,-17.97,0,*6A
1519142870.77,12257,11.0,72572.0,-12.99,-17.41,-17.87,0,*6A
1519142872.08,12258,11.0,72578.5,-12.99,-17.41,-17.97,0,*64
1519142873.38,12259,11.0,72574.0,-13.01,-17.41,-17.97,0,*65
1519142874.63,12260,11.0,72574.8,-13.03,-17.41,-17.87,0,*6C
1519142875.9,12261,11.0,72582.3,-13.01,-17.41,-17.83,0,*6B
1519142877.18,12262,11.0,72578.8,-13.01,-17.41,-17.87,0,*6C
1519142878.43,12263,11.0,72576.8,-13.01,-17.35,-17.87,0,*6E
1519142879.68,12264,11.0,72578.0,-13.01,-17.35,-17.87,0,*69
1519142880.93,12265,11.0,72578.5,-13.03,-17.41,-17.87,0,*69
1519142882.21,12266,10.94,72572.8,-13.01,-17.41,-17.87,0,*68
1519142883.48,12267,11.0,72576.5,-13.01,-17.41,-17.87,0,*69
1519142884.76,12268,11.0,72578.3,-13.01,-17.41,-17.87,0,*66
1519142886.01,12269,11.0,72576.0,-13.03,-17.41,-17.83,0,*61
1519142887.28,12270,11.0,72576.0,-13.01,-17.55,-17.83,0,*6E
1519142888.55,12271,11.0,72580.3,-13.01,-17.55,-17.87,0,*6B
1519142889.84,12272,10.94,72572.3,-13.01,-17.55,-18.01,0,*69
1519142891.11,12273,11.0,72582.3,-13.03,-17.63,-17.97,0,*6F
1519142892.37,12274,11.0,72580.8,-13.03,-17.63,-18.01,0,*68
1519142893.61,12275,10.94,72572.3,-13.03,-17.69,-18.01,0,*63
1519142894.85,12276,11.0,72578.8,-13.01,-17.69,-18.11,0,*63
1519142896.09,12277,10.94,72574.5,-13.01,-17.73,-18.25,0,*6E
1519142897.33,12278,10.94,72576.3,-13.03,-17.73,-18.31,0,*66
1519142898.6,12279,11.0,72576.5,-13.01,-17.73,-18.31,0,*65
1519142899.87,12280,10.94,72574.3,-13.01,-17.73,-18.31,0,*63
1519142901.12,12281,11.0,72576.8,-13.03,-17.83,-18.31,0,*6F
1519142902.39,12282,11.0,72576.8,-13.01,-17.83,-18.31,0,*6E
1519142903.64,12283,11.0,72576.5,-13.03,-17.83,-18.31,0,*6D
1519142904.89,12284,10.94,72578.3,-13.03,-17.73,-18.31,0,*65